ONEWEB-0082 (45452 NORAD) Tracking and Keplerian Element Data

This shows tracking and keplerian element data for the satellite.

Feedback or suggestion? Click here.




ElementValue
Catalog45452
NameONEWEB-0082
Epoch Orbit157
Epoch Day93.91667824
Epoch Year2020
RAAN134.6032
Inclination87.3986
Eccentricity0.0023655
Argument of Perigee261.7737
Mean Anonmoly192.6678
Mean Motion15.34741232
Decay Rate0.00040806
L11 45452U 20020AE 20093.91667824 .00040806 00000-0 11964-2 0 9992
L22 45452 87.3986 134.6032 0023655 261.7737 192.6678 15.34741232 1570

Live tracking and technical data element details for ONEWEB-0082 (NORAD 45452). ONEWEB-0082 can be tracked NOW for your location showing map with azimuth and elevation plus other details from your city location.

Track the satellite on the map from your city or location and see movement details for azimuth, elevation, latitude, longitude, range, height, and movement on the map or in text.







IsCatalogInMostPopularTable: catalog: 45452, numindb: 3
Update: records affected: 1



GetName: 45452 ONEWEB-0082

Hit Count: updated at: Tue, 07 Apr 2020 15:46:48 GMT